Time,TemperatureF,DewpointF,PressureIn,WindDirection,WindDirectionDegrees,WindSpeedMPH,WindSpeedGustMPH,Humidity,HourlyPrecipIn,Conditions,Clouds,dailyrainin,SoftwareType,DateUTC
2013-06-20 00:01:00,56.1,49.3,30.16,NNW,344,0.0,0.0,78,0.00,,CLR,0.00,VWS V14.01,2013-06-20 04:01:00,
2013-06-20 00:02:00,56.0,49.2,30.17,NNW,344,0.0,0.0,78,0.00,,CLR,0.00,VWS V14.01,2013-06-20 04:02:00,
2013-06-20 00:04:00,55.9,49.2,30.17,NNW,344,0.0,0.0,78,0.00,,CLR,0.00,VWS V14.01,2013-06-20 04:04:00,
2013-06-20 00:09:00,55.7,49.0,30.17,NNW,344,0.0,0.0,78,0.00,,CLR,0.00,VWS V14.01,2013-06-20 04:09:00,
2013-06-20 00:14:00,55.4,49.0,30.17,NNW,344,0.0,0.0,79,0.00,,CLR,0.00,VWS V14.01,2013-06-20 04:14:00,
2013-06-20 00:19:00,55.1,49.4,30.17,NNW,344,0.0,0.0,81,0.00,,CLR,0.00,VWS V14.01,2013-06-20 04:19:00,
2013-06-20 00:24:00,54.9,49.8,30.17,NNW,344,1.0,1.0,83,0.00,,CLR,0.00,VWS V14.01,2013-06-20 04:24:00,
2013-06-20 00:29:00,54.7,49.3,30.17,NNW,344,0.0,1.0,82,0.00,,CLR,0.00,VWS V14.01,2013-06-20 04:29:00,
2013-06-20 00:34:00,54.6,49.9,30.17,NNW,344,0.0,0.0,84,0.00,,CLR,0.00,VWS V14.01,2013-06-20 04:34:00,
2013-06-20 00:39:00,54.5,50.4,30.17,NNW,344,0.0,0.0,86,0.00,,CLR,0.00,VWS V14.01,2013-06-20 04:39:00,
2013-06-20 00:44:00,54.3,49.9,30.17,NNW,344,0.0,0.0,85,0.00,,CLR,0.00,VWS V14.01,2013-06-20 04:44:00,
2013-06-20 00:49:00,54.1,49.4,30.17,NNW,344,0.0,0.0,84,0.00,,CLR,0.00,VWS V14.01,2013-06-20 04:49:00,
2013-06-20 00:54:00,53.8,49.4,30.17,NNW,344,0.0,0.0,85,0.00,,CLR,0.00,VWS V14.01,2013-06-20 04:54:00,
2013-06-20 00:59:00,53.6,49.5,30.17,NNW,344,0.0,0.0,86,0.00,,CLR,0.00,VWS V14.01,2013-06-20 04:59:00,
2013-06-20 01:04:00,53.5,49.7,30.17,NNW,344,0.0,0.0,87,0.00,,CLR,0.00,VWS V14.01,2013-06-20 05:04:00,
2013-06-20 01:09:00,53.3,49.8,30.17,NNW,344,0.0,0.0,88,0.00,,CLR,0.00,VWS V14.01,2013-06-20 05:09:00,
2013-06-20 01:14:00,53.1,49.0,30.17,NNW,344,0.0,0.0,86,0.00,,CLR,0.00,VWS V14.01,2013-06-20 05:14:00,
2013-06-20 01:19:00,53.1,49.7,30.17,NNW,344,0.0,0.0,88,0.00,,CLR,0.00,VWS V14.01,2013-06-20 05:19:00,
2013-06-20 01:24:00,53.0,49.2,30.16,NNW,344,0.0,0.0,87,0.00,,CLR,0.00,VWS V14.01,2013-06-20 05:24:00,
2013-06-20 01:29:00,53.0,48.9,30.16,NNW,344,0.0,0.0,86,0.00,,CLR,0.00,VWS V14.01,2013-06-20 05:29:00,
2013-06-20 01:34:00,53.1,48.7,30.16,NNW,344,0.0,0.0,85,0.00,,CLR,0.00,VWS V14.01,2013-06-20 05:34:00,
2013-06-20 01:40:00,53.1,48.4,30.16,NNW,344,0.0,0.0,84,0.00,,CLR,0.00,VWS V14.01,2013-06-20 05:40:00,
2013-06-20 01:45:00,53.2,48.8,30.16,NNW,344,1.0,1.0,85,0.00,,CLR,0.00,VWS V14.01,2013-06-20 05:45:00,
2013-06-20 01:50:00,53.3,48.6,30.16,NNW,344,0.0,1.0,84,0.00,,CLR,0.00,VWS V14.01,2013-06-20 05:50:00,
2013-06-20 01:55:00,53.4,48.7,30.16,NNW,344,0.0,1.0,84,0.00,,CLR,0.00,VWS V14.01,2013-06-20 05:55:00,
2013-06-20 02:00:00,53.4,48.4,30.16,NNW,344,0.0,1.0,83,0.00,,CLR,0.00,VWS V14.01,2013-06-20 06:00:00,
2013-06-20 02:05:00,53.3,48.9,30.16,NNW,344,0.0,0.0,85,0.00,,CLR,0.00,VWS V14.01,2013-06-20 06:05:00,
2013-06-20 02:10:00,53.2,49.4,30.16,NNW,344,0.0,0.0,87,0.00,,CLR,0.00,VWS V14.01,2013-06-20 06:10:00,
2013-06-20 02:15:00,53.0,48.6,30.16,NNW,344,0.0,0.0,85,0.00,,CLR,0.00,VWS V14.01,2013-06-20 06:15:00,
2013-06-20 02:20:00,52.9,48.5,30.16,NNW,344,0.0,0.0,85,0.00,,CLR,0.00,VWS V14.01,2013-06-20 06:20:00,
2013-06-20 02:25:00,52.8,48.7,30.16,NNW,344,0.0,0.0,86,0.00,,CLR,0.00,VWS V14.01,2013-06-20 06:25:00,
2013-06-20 02:30:00,52.6,48.2,30.16,NNW,344,0.0,0.0,85,0.00,,CLR,0.00,VWS V14.01,2013-06-20 06:30:00,
2013-06-20 02:35:00,52.4,48.0,30.16,NNW,344,0.0,0.0,85,0.00,,CLR,0.00,VWS V14.01,2013-06-20 06:35:00,
2013-06-20 02:40:00,52.2,48.2,30.16,NNW,344,0.0,0.0,86,0.00,,CLR,0.00,VWS V14.01,2013-06-20 06:40:00,
2013-06-20 02:45:00,52.1,48.7,30.16,NNW,344,0.0,0.0,88,0.00,,CLR,0.00,VWS V14.01,2013-06-20 06:45:00,
2013-06-20 02:50:00,52.1,48.7,30.16,NNW,344,0.0,0.0,88,0.00,,CLR,0.00,VWS V14.01,2013-06-20 06:50:00,
2013-06-20 02:55:00,52.0,48.3,30.16,NNW,344,0.0,0.0,87,0.00,,CLR,0.00,VWS V14.01,2013-06-20 06:55:00,
2013-06-20 03:00:00,52.0,48.6,30.16,NNW,344,0.0,0.0,88,0.00,,CLR,0.00,VWS V14.01,2013-06-20 07:00:00,
2013-06-20 03:05:00,52.0,48.3,30.16,NNW,344,0.0,0.0,87,0.00,,CLR,0.00,VWS V14.01,2013-06-20 07:05:00,
2013-06-20 03:10:00,52.1,48.4,30.16,NNW,344,0.0,0.0,87,0.00,,CLR,0.00,VWS V14.01,2013-06-20 07:10:00,
2013-06-20 03:15:00,52.1,49.0,30.17,NNW,344,0.0,0.0,89,0.00,,CLR,0.00,VWS V14.01,2013-06-20 07:15:00,
2013-06-20 03:20:00,52.1,49.0,30.17,NNW,344,0.0,0.0,89,0.00,,CLR,0.00,VWS V14.01,2013-06-20 07:20:00,
2013-06-20 03:25:00,52.2,48.5,30.17,NNW,344,0.0,0.0,87,0.00,,CLR,0.00,VWS V14.01,2013-06-20 07:25:00,
2013-06-20 03:30:00,52.3,48.2,30.17,NNW,344,0.0,0.0,86,0.00,,CLR,0.00,VWS V14.01,2013-06-20 07:30:00,
2013-06-20 03:36:00,52.3,48.2,30.17,NNW,344,0.0,0.0,86,0.00,,CLR,0.00,VWS V14.01,2013-06-20 07:36:00,
2013-06-20 03:41:00,52.2,48.5,30.17,NNW,344,0.0,1.0,87,0.00,,CLR,0.00,VWS V14.01,2013-06-20 07:41:00,
2013-06-20 03:46:00,52.1,48.4,30.17,NNW,344,0.0,1.0,87,0.00,,CLR,0.00,VWS V14.01,2013-06-20 07:46:00,
2013-06-20 03:51:00,52.0,48.3,30.17,NNW,344,0.0,1.0,87,0.00,,CLR,0.00,VWS V14.01,2013-06-20 07:51:00,
2013-06-20 03:56:00,51.9,48.2,30.17,NNW,344,0.0,1.0,87,0.00,,CLR,0.00,VWS V14.01,2013-06-20 07:56:00,
2013-06-20 04:01:00,51.9,48.2,30.17,NNW,344,0.0,0.0,87,0.00,,CLR,0.00,VWS V14.01,2013-06-20 08:01:00,
2013-06-20 04:06:00,51.7,48.3,30.17,NNW,344,0.0,0.0,88,0.00,,CLR,0.00,VWS V14.01,2013-06-20 08:06:00,
2013-06-20 04:11:00,51.6,48.2,30.17,NNW,344,0.0,0.0,88,0.00,,CLR,0.00,VWS V14.01,2013-06-20 08:11:00,
2013-06-20 04:16:00,51.5,48.1,30.17,NNW,344,0.0,0.0,88,0.00,,CLR,0.00,VWS V14.01,2013-06-20 08:16:00,
2013-06-20 04:21:00,51.3,48.2,30.17,NNW,344,0.0,0.0,89,0.00,,CLR,0.00,VWS V14.01,2013-06-20 08:21:00,
2013-06-20 04:26:00,51.2,48.1,30.17,NNW,344,0.0,1.0,89,0.00,,CLR,0.00,VWS V14.01,2013-06-20 08:26:00,
2013-06-20 04:31:00,51.0,47.9,30.17,NNW,344,0.0,0.0,89,0.00,,CLR,0.00,VWS V14.01,2013-06-20 08:31:00,
2013-06-20 04:36:00,50.9,47.8,30.17,NNW,344,0.0,0.0,89,0.00,,CLR,0.00,VWS V14.01,2013-06-20 08:36:00,
2013-06-20 04:41:00,50.8,48.0,30.17,NNW,344,0.0,0.0,90,0.00,,CLR,0.00,VWS V14.01,2013-06-20 08:41:00,
2013-06-20 04:46:00,50.7,47.9,30.17,NNW,344,0.0,0.0,90,0.00,,CLR,0.00,VWS V14.01,2013-06-20 08:46:00,
2013-06-20 04:51:00,50.6,48.1,30.17,NNW,344,0.0,0.0,91,0.00,,CLR,0.00,VWS V14.01,2013-06-20 08:51:00,
2013-06-20 04:56:00,50.5,48.0,30.17,NNW,344,0.0,0.0,91,0.00,,CLR,0.00,VWS V14.01,2013-06-20 08:56:00,
2013-06-20 05:01:00,50.5,48.0,30.17,NNW,344,0.0,0.0,91,0.00,,CLR,0.00,VWS V14.01,2013-06-20 09:01:00,
2013-06-20 05:06:00,50.5,48.0,30.17,NNW,344,0.0,0.0,91,0.00,,CLR,0.00,VWS V14.01,2013-06-20 09:06:00,
2013-06-20 05:11:00,50.5,48.0,30.17,NNW,344,0.0,1.0,91,0.00,,CLR,0.00,VWS V14.01,2013-06-20 09:11:00,
2013-06-20 05:16:00,50.7,47.9,30.17,NNW,344,0.0,1.0,90,0.00,,CLR,0.00,VWS V14.01,2013-06-20 09:16:00,
2013-06-20 05:21:00,50.7,47.9,30.17,NNW,344,0.0,1.0,90,0.00,,CLR,0.00,VWS V14.01,2013-06-20 09:21:00,
2013-06-20 05:26:00,50.6,47.8,30.17,NNW,344,0.0,1.0,90,0.00,,CLR,0.00,VWS V14.01,2013-06-20 09:26:00,
2013-06-20 05:32:00,50.5,48.0,30.17,NNW,344,0.0,0.0,91,0.00,,CLR,0.00,VWS V14.01,2013-06-20 09:32:00,
2013-06-20 05:37:00,50.5,48.0,30.17,NNW,344,0.0,0.0,91,0.00,,CLR,0.00,VWS V14.01,2013-06-20 09:37:00,
2013-06-20 05:42:00,50.5,48.0,30.18,NNW,344,0.0,0.0,91,0.00,,CLR,0.00,VWS V14.01,2013-06-20 09:42:00,
2013-06-20 05:47:00,50.5,48.0,30.17,NNW,344,0.0,0.0,91,0.00,,CLR,0.00,VWS V14.01,2013-06-20 09:47:00,
2013-06-20 05:52:00,50.5,48.0,30.18,NNW,344,0.0,0.0,91,0.00,,CLR,0.00,VWS V14.01,2013-06-20 09:52:00,
2013-06-20 05:57:00,50.4,47.9,30.18,NNW,344,0.0,0.0,91,0.00,,CLR,0.00,VWS V14.01,2013-06-20 09:57:00,
2013-06-20 06:02:00,50.4,48.2,30.18,NNW,344,0.0,0.0,92,0.00,,CLR,0.00,VWS V14.01,2013-06-20 10:02:00,
2013-06-20 06:07:00,50.4,48.2,30.18,NNW,344,0.0,0.0,92,0.00,,CLR,0.00,VWS V14.01,2013-06-20 10:07:00,
2013-06-20 06:12:00,50.4,48.2,30.18,NNW,344,0.0,0.0,92,0.00,,CLR,0.00,VWS V14.01,2013-06-20 10:12:00,
2013-06-20 06:17:00,50.6,48.4,30.18,NNW,344,0.0,0.0,92,0.00,,CLR,0.00,VWS V14.01,2013-06-20 10:17:00,
2013-06-20 06:22:00,50.8,48.6,30.19,NNW,344,0.0,0.0,92,0.00,,CLR,0.00,VWS V14.01,2013-06-20 10:22:00,
2013-06-20 06:27:00,51.1,48.9,30.19,NNW,344,0.0,0.0,92,0.00,,CLR,0.00,VWS V14.01,2013-06-20 10:27:00,
2013-06-20 06:32:00,51.4,48.9,30.19,NNW,344,0.0,0.0,91,0.00,,CLR,0.00,VWS V14.01,2013-06-20 10:32:00,
2013-06-20 06:37:00,51.5,49.0,30.19,NNW,344,0.0,0.0,91,0.00,,CLR,0.00,VWS V14.01,2013-06-20 10:37:00,
2013-06-20 06:42:00,51.7,49.2,30.19,NNW,344,0.0,0.0,91,0.00,,CLR,0.00,VWS V14.01,2013-06-20 10:42:00,
2013-06-20 06:47:00,51.9,49.4,30.19,NNW,344,0.0,0.0,91,0.00,,CLR,0.00,VWS V14.01,2013-06-20 10:47:00,
2013-06-20 06:52:00,52.0,49.5,30.19,NNW,344,0.0,0.0,91,0.00,,CLR,0.00,VWS V14.01,2013-06-20 10:52:00,
2013-06-20 06:57:00,52.5,50.0,30.19,NNW,344,0.0,0.0,91,0.00,,CLR,0.00,VWS V14.01,2013-06-20 10:57:00,
2013-06-20 07:02:00,53.1,50.2,30.19,NNW,344,0.0,0.0,90,0.00,,CLR,0.00,VWS V14.01,2013-06-20 11:02:00,
2013-06-20 07:07:00,53.6,50.7,30.19,NNW,344,0.0,0.0,90,0.00,,CLR,0.00,VWS V14.01,2013-06-20 11:07:00,
2013-06-20 07:12:00,54.3,51.1,30.19,NNW,344,0.0,1.0,89,0.00,,CLR,0.00,VWS V14.01,2013-06-20 11:12:00,
2013-06-20 07:17:00,55.2,51.7,30.19,NNW,344,0.0,1.0,88,0.00,,CLR,0.00,VWS V14.01,2013-06-20 11:17:00,
2013-06-20 07:22:00,56.0,52.5,30.19,NNW,344,0.0,1.0,88,0.00,,CLR,0.00,VWS V14.01,2013-06-20 11:22:00,
2013-06-20 07:27:00,56.7,52.2,30.20,NNW,344,0.0,1.0,85,0.00,,CLR,0.00,VWS V14.01,2013-06-20 11:27:00,
2013-06-20 07:33:00,57.3,52.2,30.20,NNW,344,1.0,1.0,83,0.00,,CLR,0.00,VWS V14.01,2013-06-20 11:33:00,
2013-06-20 07:38:00,57.8,53.3,30.20,NNW,344,0.0,2.0,85,0.00,,CLR,0.00,VWS V14.01,2013-06-20 11:38:00,
2013-06-20 07:43:00,58.2,53.1,30.20,NNW,344,1.0,2.0,83,0.00,,CLR,0.00,VWS V14.01,2013-06-20 11:43:00,
2013-06-20 07:48:00,58.5,53.4,30.20,NNW,344,0.0,2.0,83,0.00,,CLR,0.00,VWS V14.01,2013-06-20 11:48:00,
2013-06-20 07:53:00,58.9,53.4,30.21,NNW,344,0.0,2.0,82,0.00,,CLR,0.00,VWS V14.01,2013-06-20 11:53:00,
2013-06-20 07:58:00,59.2,53.4,30.21,NNW,335,0.0,2.0,81,0.00,,CLR,0.00,VWS V14.01,2013-06-20 11:58:00,
2013-06-20 08:03:00,59.7,53.9,30.21,NNW,335,0.0,0.0,81,0.00,,CLR,0.00,VWS V14.01,2013-06-20 12:03:00,
2013-06-20 08:08:00,60.0,53.1,30.21,WSW,255,1.0,3.0,78,0.00,,CLR,0.00,VWS V14.01,2013-06-20 12:08:00,
2013-06-20 08:13:00,60.4,53.5,30.21,WSW,255,0.0,3.0,78,0.00,,CLR,0.00,VWS V14.01,2013-06-20 12:13:00,
2013-06-20 08:18:00,61.1,54.9,30.22,WSW,255,0.0,3.0,80,0.00,,CLR,0.00,VWS V14.01,2013-06-20 12:18:00,
2013-06-20 08:23:00,61.6,54.3,30.22,WSW,255,1.0,3.0,77,0.00,,CLR,0.00,VWS V14.01,2013-06-20 12:23:00,
2013-06-20 08:28:00,61.9,54.6,30.22,SW,229,1.0,4.0,77,0.00,,CLR,0.00,VWS V14.01,2013-06-20 12:28:00,
2013-06-20 08:33:00,62.2,55.3,30.22,SSW,209,2.0,3.0,78,0.00,,CLR,0.00,VWS V14.01,2013-06-20 12:33:00,
2013-06-20 08:38:00,62.3,54.3,30.22,South,180,1.0,5.0,75,0.00,,CLR,0.00,VWS V14.01,2013-06-20 12:38:00,
2013-06-20 08:43:00,62.6,54.6,30.22,South,190,3.0,5.0,75,0.00,,CLR,0.00,VWS V14.01,2013-06-20 12:43:00,
2013-06-20 08:48:00,62.9,53.8,30.22,SSW,204,2.0,5.0,72,0.00,,CLR,0.00,VWS V14.01,2013-06-20 12:48:00,
2013-06-20 08:53:00,63.3,54.9,30.22,SW,225,4.0,5.0,74,0.00,,CLR,0.00,VWS V14.01,2013-06-20 12:53:00,
2013-06-20 08:58:00,63.7,54.5,30.23,SSE,167,2.0,5.0,72,0.00,,CLR,0.00,VWS V14.01,2013-06-20 12:58:00,
2013-06-20 09:03:00,64.0,54.8,30.22,South,175,2.0,4.0,72,0.00,,CLR,0.00,VWS V14.01,2013-06-20 13:03:00,
2013-06-20 09:08:00,64.2,55.0,30.23,SSE,160,1.0,4.0,72,0.00,,CLR,0.00,VWS V14.01,2013-06-20 13:08:00,
2013-06-20 09:13:00,64.5,56.0,30.23,South,186,4.0,5.0,74,0.00,,CLR,0.00,VWS V14.01,2013-06-20 13:13:00,
2013-06-20 09:18:00,64.7,55.5,30.23,SSW,206,5.0,5.0,72,0.00,,CLR,0.00,VWS V14.01,2013-06-20 13:18:00,
2013-06-20 09:23:00,64.8,56.7,30.23,SSW,194,2.0,5.0,75,0.00,,CLR,0.00,VWS V14.01,2013-06-20 13:23:00,
2013-06-20 09:28:00,65.2,56.0,30.23,South,182,4.0,5.0,72,0.00,,CLR,0.00,VWS V14.01,2013-06-20 13:28:00,
2013-06-20 09:33:00,65.6,56.7,30.23,South,183,3.0,4.0,73,0.00,,CLR,0.00,VWS V14.01,2013-06-20 13:33:00,
2013-06-20 09:39:00,66.0,57.1,30.23,South,180,0.0,6.0,73,0.00,,CLR,0.00,VWS V14.01,2013-06-20 13:39:00,
2013-06-20 09:44:00,66.5,58.0,30.23,SSE,167,2.0,6.0,74,0.00,,CLR,0.00,VWS V14.01,2013-06-20 13:44:00,
2013-06-20 09:49:00,67.2,58.3,30.23,South,184,1.0,6.0,73,0.00,,CLR,0.00,VWS V14.01,2013-06-20 13:49:00,
2013-06-20 09:54:00,67.7,58.7,30.23,South,175,4.0,6.0,73,0.00,,CLR,0.00,VWS V14.01,2013-06-20 13:54:00,
2013-06-20 09:59:00,68.1,57.6,30.23,South,175,0.0,6.0,69,0.00,,CLR,0.00,VWS V14.01,2013-06-20 13:59:00,
2013-06-20 10:04:00,68.2,58.0,30.23,SSE,155,2.0,6.0,70,0.00,,CLR,0.00,VWS V14.01,2013-06-20 14:04:00,
2013-06-20 10:09:00,69.0,58.8,30.23,SSE,161,0.0,6.0,70,0.00,,CLR,0.00,VWS V14.01,2013-06-20 14:09:00,
2013-06-20 10:14:00,69.6,59.8,30.23,SSE,157,1.0,6.0,71,0.00,,CLR,0.00,VWS V14.01,2013-06-20 14:14:00,
2013-06-20 10:19:00,70.5,59.0,30.23,SSE,157,0.0,6.0,67,0.00,,CLR,0.00,VWS V14.01,2013-06-20 14:19:00,
2013-06-20 10:24:00,70.8,56.2,30.23,SSW,194,4.0,6.0,60,0.00,,CLR,0.00,VWS V14.01,2013-06-20 14:24:00,
2013-06-20 10:29:00,70.6,57.8,30.23,South,173,1.0,6.0,64,0.00,,CLR,0.00,VWS V14.01,2013-06-20 14:29:00,
2013-06-20 10:34:00,70.6,57.4,30.23,SE,138,2.0,5.0,63,0.00,,CLR,0.00,VWS V14.01,2013-06-20 14:34:00,
2013-06-20 10:39:00,71.0,56.9,30.23,SSE,158,3.0,5.0,61,0.00,,CLR,0.00,VWS V14.01,2013-06-20 14:39:00,
2013-06-20 10:44:00,71.4,56.3,30.23,SE,126,1.0,5.0,59,0.00,,CLR,0.00,VWS V14.01,2013-06-20 14:44:00,
2013-06-20 10:49:00,72.1,55.6,30.23,SSW,198,5.0,5.0,56,0.00,,CLR,0.00,VWS V14.01,2013-06-20 14:49:00,
2013-06-20 10:54:00,72.3,52.6,30.22,South,184,0.0,5.0,50,0.00,,CLR,0.00,VWS V14.01,2013-06-20 14:54:00,
2013-06-20 10:59:00,73.1,54.5,30.23,West,259,1.0,5.0,52,0.00,,CLR,0.00,VWS V14.01,2013-06-20 14:59:00,
2013-06-20 11:04:00,74.1,55.9,30.22,North,351,1.0,2.0,53,0.00,,CLR,0.00,VWS V14.01,2013-06-20 15:04:00,
2013-06-20 11:09:00,74.8,54.9,30.22,SSW,197,4.0,6.0,50,0.00,,CLR,0.00,VWS V14.01,2013-06-20 15:09:00,
2013-06-20 11:14:00,74.1,53.2,30.22,SSW,205,1.0,6.0,48,0.00,,CLR,0.00,VWS V14.01,2013-06-20 15:14:00,
2013-06-20 11:20:00,74.0,52.5,30.22,SSW,205,2.0,6.0,47,0.00,,CLR,0.00,VWS V14.01,2013-06-20 15:20:00,
2013-06-20 11:25:00,74.1,51.4,30.22,North,5,1.0,6.0,45,0.00,,CLR,0.00,VWS V14.01,2013-06-20 15:25:00,
2013-06-20 11:30:00,74.9,50.9,30.22,East,86,2.0,6.0,43,0.00,,CLR,0.00,VWS V14.01,2013-06-20 15:30:00,
2013-06-20 11:35:00,74.9,53.9,30.22,South,170,1.0,3.0,48,0.00,,CLR,0.00,VWS V14.01,2013-06-20 15:35:00,
2013-06-20 11:40:00,74.9,55.6,30.22,SE,144,1.0,3.0,51,0.00,,CLR,0.00,VWS V14.01,2013-06-20 15:40:00,
2013-06-20 11:45:00,74.9,52.8,30.22,SE,141,4.0,7.0,46,0.00,,CLR,0.00,VWS V14.01,2013-06-20 15:45:00,
2013-06-20 11:50:00,75.0,56.2,30.22,ESE,108,2.0,7.0,52,0.00,,CLR,0.00,VWS V14.01,2013-06-20 15:50:00,
2013-06-20 11:55:00,75.6,55.7,30.22,SW,221,1.0,7.0,50,0.00,,CLR,0.00,VWS V14.01,2013-06-20 15:55:00,
2013-06-20 12:00:00,75.5,53.3,30.22,SSW,212,0.0,7.0,46,0.00,,CLR,0.00,VWS V14.01,2013-06-20 16:00:00,
2013-06-20 12:05:00,75.7,52.3,30.22,SSE,151,1.0,3.0,44,0.00,,CLR,0.00,VWS V14.01,2013-06-20 16:05:00,
2013-06-20 12:10:00,75.2,53.0,30.22,SW,219,2.0,5.0,46,0.00,,CLR,0.00,VWS V14.01,2013-06-20 16:10:00,
2013-06-20 12:15:00,74.8,52.1,30.22,South,186,3.0,5.0,45,0.00,,CLR,0.00,VWS V14.01,2013-06-20 16:15:00,
2013-06-20 12:20:00,74.5,53.5,30.22,SSE,167,2.0,5.0,48,0.00,,CLR,0.00,VWS V14.01,2013-06-20 16:20:00,
2013-06-20 12:25:00,74.7,53.7,30.22,South,173,0.0,5.0,48,0.00,,CLR,0.00,VWS V14.01,2013-06-20 16:25:00,
2013-06-20 12:30:00,74.9,53.3,30.22,ESE,112,2.0,5.0,47,0.00,,CLR,0.00,VWS V14.01,2013-06-20 16:30:00,
2013-06-20 12:35:00,75.6,54.0,30.22,ESE,108,1.0,3.0,47,0.00,,CLR,0.00,VWS V14.01,2013-06-20 16:35:00,
2013-06-20 12:40:00,75.5,55.0,30.22,SSW,197,1.0,5.0,49,0.00,,CLR,0.00,VWS V14.01,2013-06-20 16:40:00,
2013-06-20 12:45:00,75.7,55.2,30.22,SW,219,0.0,5.0,49,0.00,,CLR,0.00,VWS V14.01,2013-06-20 16:45:00,
2013-06-20 12:50:00,76.0,56.0,30.22,SW,220,1.0,5.0,50,0.00,,CLR,0.00,VWS V14.01,2013-06-20 16:50:00,
2013-06-20 12:55:00,76.4,54.7,30.21,SW,232,0.0,5.0,47,0.00,,CLR,0.00,VWS V14.01,2013-06-20 16:55:00,
2013-06-20 13:00:00,76.4,54.1,30.21,SW,217,4.0,5.0,46,0.00,,CLR,0.00,VWS V14.01,2013-06-20 17:00:00,
2013-06-20 13:05:00,75.4,53.2,30.21,ESE,117,3.0,5.0,46,0.00,,CLR,0.00,VWS V14.01,2013-06-20 17:05:00,
2013-06-20 13:10:00,75.6,54.0,30.21,SE,127,2.0,5.0,47,0.00,,CLR,0.00,VWS V14.01,2013-06-20 17:10:00,
2013-06-20 13:15:00,75.7,55.8,30.21,ESE,123,0.0,5.0,50,0.00,,CLR,0.00,VWS V14.01,2013-06-20 17:15:00,
2013-06-20 13:21:00,76.2,55.1,30.20,ESE,106,3.0,5.0,48,0.00,,CLR,0.00,VWS V14.01,2013-06-20 17:21:00,
2013-06-20 13:26:00,76.5,53.6,30.20,NE,37,1.0,7.0,45,0.00,,CLR,0.00,VWS V14.01,2013-06-20 17:26:00,
2013-06-20 13:31:00,76.6,57.7,30.20,North,349,3.0,5.0,52,0.00,,CLR,0.00,VWS V14.01,2013-06-20 17:31:00,
2013-06-20 13:36:00,76.9,55.2,30.20,NNE,15,2.0,6.0,47,0.00,,CLR,0.00,VWS V14.01,2013-06-20 17:36:00,
2013-06-20 13:41:00,77.6,55.8,30.20,NW,320,3.0,6.0,47,0.00,,CLR,0.00,VWS V14.01,2013-06-20 17:41:00,
2013-06-20 13:46:00,77.3,54.3,30.20,NNE,27,3.0,6.0,45,0.00,,CLR,0.00,VWS V14.01,2013-06-20 17:46:00,
2013-06-20 13:51:00,77.4,51.9,30.20,ESE,110,0.0,6.0,41,0.00,,CLR,0.00,VWS V14.01,2013-06-20 17:51:00,
2013-06-20 13:56:00,77.5,54.5,30.20,NNW,348,2.0,6.0,45,0.00,,CLR,0.00,VWS V14.01,2013-06-20 17:56:00,
2013-06-20 14:01:00,77.8,52.2,30.20,NNE,28,1.0,3.0,41,0.00,,CLR,0.00,VWS V14.01,2013-06-20 18:01:00,
2013-06-20 14:06:00,78.0,53.7,30.20,NE,40,2.0,4.0,43,0.00,,CLR,0.00,VWS V14.01,2013-06-20 18:06:00,
2013-06-20 14:11:00,77.7,55.9,30.19,SW,221,3.0,4.0,47,0.00,,CLR,0.00,VWS V14.01,2013-06-20 18:11:00,
2013-06-20 14:16:00,77.4,54.4,30.19,South,174,2.0,4.0,45,0.00,,CLR,0.00,VWS V14.01,2013-06-20 18:16:00,
2013-06-20 14:21:00,77.4,53.2,30.19,SSW,202,2.0,5.0,43,0.00,,CLR,0.00,VWS V14.01,2013-06-20 18:21:00,
2013-06-20 14:26:00,77.1,54.2,30.19,SSE,157,2.0,5.0,45,0.00,,CLR,0.00,VWS V14.01,2013-06-20 18:26:00,
2013-06-20 14:31:00,77.3,54.3,30.19,South,187,0.0,0.0,45,0.00,,CLR,0.00,VWS V14.01,2013-06-20 18:31:00,
2013-06-20 14:36:00,78.4,56.5,30.19,South,179,0.0,2.0,47,0.00,,CLR,0.00,VWS V14.01,2013-06-20 18:36:00,
2013-06-20 14:41:00,78.9,53.2,30.20,SSW,202,0.0,3.0,41,0.00,,CLR,0.00,VWS V14.01,2013-06-20 18:41:00,
2013-06-20 14:46:00,78.8,52.5,30.20,NW,309,0.0,4.0,40,0.00,,CLR,0.00,VWS V14.01,2013-06-20 18:46:00,
2013-06-20 14:51:00,79.0,53.3,30.21,NNW,335,2.0,5.0,41,0.00,,CLR,0.00,VWS V14.01,2013-06-20 18:51:00,
2013-06-20 14:56:00,78.9,52.5,30.21,NW,309,2.0,6.0,40,0.00,,CLR,0.00,VWS V14.01,2013-06-20 18:56:00,
2013-06-20 15:01:00,78.7,55.6,30.21,NNW,335,2.0,2.0,45,0.00,,CLR,0.00,VWS V14.01,2013-06-20 19:01:00,
2013-06-20 15:06:00,78.9,52.5,30.21,NW,324,0.0,5.0,40,0.00,,CLR,0.00,VWS V14.01,2013-06-20 19:06:00,
2013-06-20 15:12:00,79.1,52.7,30.21,NW,319,1.0,6.0,40,0.00,,CLR,0.00,VWS V14.01,2013-06-20 19:12:00,
2013-06-20 15:17:00,79.0,54.0,30.20,NNE,17,3.0,6.0,42,0.00,,CLR,0.00,VWS V14.01,2013-06-20 19:17:00,
2013-06-20 15:22:00,78.9,52.5,30.20,NW,322,2.0,6.0,40,0.00,,CLR,0.00,VWS V14.01,2013-06-20 19:22:00,
2013-06-20 15:27:00,79.0,55.2,30.20,NNW,337,1.0,6.0,44,0.00,,CLR,0.00,VWS V14.01,2013-06-20 19:27:00,
2013-06-20 15:32:00,79.2,55.4,30.20,NW,309,1.0,3.0,44,0.00,,CLR,0.00,VWS V14.01,2013-06-20 19:32:00,
2013-06-20 15:37:00,79.6,53.8,30.20,North,349,2.0,4.0,41,0.00,,CLR,0.00,VWS V14.01,2013-06-20 19:37:00,
2013-06-20 15:42:00,79.7,55.9,30.20,North,349,1.0,5.0,44,0.00,,CLR,0.00,VWS V14.01,2013-06-20 19:42:00,
2013-06-20 15:47:00,80.0,50.7,30.20,NE,39,1.0,5.0,36,0.00,,CLR,0.00,VWS V14.01,2013-06-20 19:47:00,
2013-06-20 15:52:00,80.0,55.5,30.20,NE,38,0.0,5.0,43,0.00,,CLR,0.00,VWS V14.01,2013-06-20 19:52:00,
2013-06-20 15:57:00,80.6,55.4,30.20,NNE,18,1.0,5.0,42,0.00,,CLR,0.00,VWS V14.01,2013-06-20 19:57:00,
2013-06-20 16:02:00,80.6,54.1,30.20,NNE,32,3.0,3.0,40,0.00,,CLR,0.00,VWS V14.01,2013-06-20 20:02:00,
2013-06-20 16:07:00,80.0,57.4,30.20,North,360,0.0,3.0,46,0.00,,CLR,0.00,VWS V14.01,2013-06-20 20:07:00,
2013-06-20 16:12:00,79.6,56.4,30.20,North,355,0.0,5.0,45,0.00,,CLR,0.00,VWS V14.01,2013-06-20 20:12:00,
2013-06-20 16:17:00,80.2,55.0,30.20,North,9,3.0,5.0,42,0.00,,CLR,0.00,VWS V14.01,2013-06-20 20:17:00,
2013-06-20 16:22:00,80.3,57.7,30.20,NNE,26,2.0,5.0,46,0.00,,CLR,0.00,VWS V14.01,2013-06-20 20:22:00,
2013-06-20 16:27:00,80.8,55.6,30.20,North,5,2.0,5.0,42,0.00,,CLR,0.00,VWS V14.01,2013-06-20 20:27:00,
2013-06-20 16:32:00,80.6,55.4,30.20,NNW,329,1.0,1.0,42,0.00,,CLR,0.00,VWS V14.01,2013-06-20 20:32:00,
2013-06-20 16:37:00,80.8,53.6,30.20,West,274,2.0,4.0,39,0.00,,CLR,0.00,VWS V14.01,2013-06-20 20:37:00,
2013-06-20 16:42:00,80.0,53.5,30.20,West,259,3.0,4.0,40,0.00,,CLR,0.00,VWS V14.01,2013-06-20 20:42:00,
2013-06-20 16:47:00,79.5,55.1,30.20,SSW,200,0.0,4.0,43,0.00,,CLR,0.00,VWS V14.01,2013-06-20 20:47:00,
2013-06-20 16:52:00,79.9,56.1,30.20,ENE,74,2.0,4.0,44,0.00,,CLR,0.00,VWS V14.01,2013-06-20 20:52:00,
2013-06-20 16:57:00,79.9,55.4,30.20,East,93,1.0,4.0,43,0.00,,CLR,0.00,VWS V14.01,2013-06-20 20:57:00,
2013-06-20 17:03:00,79.7,53.3,30.20,North,355,2.0,4.0,40,0.00,,CLR,0.00,VWS V14.01,2013-06-20 21:03:00,
2013-06-20 17:08:00,79.6,55.8,30.20,North,5,1.0,4.0,44,0.00,,CLR,0.00,VWS V14.01,2013-06-20 21:08:00,
2013-06-20 17:13:00,79.6,55.2,30.20,North,360,4.0,7.0,43,0.00,,CLR,0.00,VWS V14.01,2013-06-20 21:13:00,
2013-06-20 17:18:00,79.1,54.7,30.20,NNE,32,1.0,7.0,43,0.00,,CLR,0.00,VWS V14.01,2013-06-20 21:18:00,
2013-06-20 17:23:00,78.9,54.5,30.20,NNE,12,4.0,7.0,43,0.00,,CLR,0.00,VWS V14.01,2013-06-20 21:23:00,
2013-06-20 17:28:00,78.9,52.5,30.19,NNE,26,3.0,7.0,40,0.00,,CLR,0.00,VWS V14.01,2013-06-20 21:28:00,
2013-06-20 17:34:00,78.9,52.5,30.20,NE,37,2.0,3.0,40,0.00,,CLR,0.00,VWS V14.01,2013-06-20 21:34:00,
2013-06-20 17:39:00,78.7,55.6,30.20,NE,37,0.0,3.0,45,0.00,,CLR,0.00,VWS V14.01,2013-06-20 21:39:00,
2013-06-20 17:44:00,78.6,53.6,30.19,NE,39,1.0,3.0,42,0.00,,CLR,0.00,VWS V14.01,2013-06-20 21:44:00,
2013-06-20 17:49:00,78.2,53.9,30.20,NE,42,0.0,3.0,43,0.00,,CLR,0.00,VWS V14.01,2013-06-20 21:49:00,
2013-06-20 17:55:00,78.2,54.5,30.19,NE,34,3.0,4.0,44,0.00,,CLR,0.00,VWS V14.01,2013-06-20 21:55:00,
2013-06-20 18:00:00,78.1,56.8,30.19,NNE,13,0.0,4.0,48,0.00,,CLR,0.00,VWS V14.01,2013-06-20 22:00:00,
2013-06-20 18:05:00,78.2,56.3,30.19,NNE,13,1.0,1.0,47,0.00,,CLR,0.00,VWS V14.01,2013-06-20 22:05:00,
2013-06-20 18:10:00,78.0,57.9,30.19,NNE,18,1.0,4.0,50,0.00,,CLR,0.00,VWS V14.01,2013-06-20 22:10:00,
2013-06-20 18:16:00,77.6,57.5,30.19,NNE,29,1.0,5.0,50,0.00,,CLR,0.00,VWS V14.01,2013-06-20 22:16:00,
2013-06-20 18:21:00,77.2,57.1,30.19,NE,42,3.0,5.0,50,0.00,,CLR,0.00,VWS V14.01,2013-06-20 22:21:00,
2013-06-20 18:26:00,76.7,56.7,30.19,NE,46,2.0,5.0,50,0.00,,CLR,0.00,VWS V14.01,2013-06-20 22:26:00,
2013-06-20 18:31:00,76.4,55.8,30.19,NE,35,1.0,3.0,49,0.00,,CLR,0.00,VWS V14.01,2013-06-20 22:31:00,
2013-06-20 18:36:00,76.2,55.7,30.19,NNE,30,2.0,3.0,49,0.00,,CLR,0.00,VWS V14.01,2013-06-20 22:36:00,
2013-06-20 18:41:00,76.2,56.2,30.19,NE,35,1.0,3.0,50,0.00,,CLR,0.00,VWS V14.01,2013-06-20 22:41:00,
2013-06-20 18:46:00,76.0,56.6,30.19,NNE,33,0.0,3.0,51,0.00,,CLR,0.00,VWS V14.01,2013-06-20 22:46:00,
2013-06-20 18:51:00,75.9,57.0,30.18,NNE,24,0.0,3.0,52,0.00,,CLR,0.00,VWS V14.01,2013-06-20 22:51:00,
2013-06-20 18:56:00,75.8,56.4,30.18,NNE,19,0.0,3.0,51,0.00,,CLR,0.00,VWS V14.01,2013-06-20 22:56:00,
2013-06-20 19:01:00,75.7,55.8,30.18,NE,36,2.0,2.0,50,0.00,,CLR,0.00,VWS V14.01,2013-06-20 23:01:00,
2013-06-20 19:06:00,75.6,55.7,30.18,NE,41,0.0,3.0,50,0.00,,CLR,0.00,VWS V14.01,2013-06-20 23:06:00,
2013-06-20 19:11:00,75.6,56.2,30.18,NE,42,1.0,3.0,51,0.00,,CLR,0.00,VWS V14.01,2013-06-20 23:11:00,
2013-06-20 19:16:00,75.5,55.6,30.18,NE,42,0.0,3.0,50,0.00,,CLR,0.00,VWS V14.01,2013-06-20 23:16:00,
2013-06-20 19:22:00,75.6,54.5,30.18,ENE,58,2.0,4.0,48,0.00,,CLR,0.00,VWS V14.01,2013-06-20 23:22:00,
2013-06-20 19:27:00,75.6,55.1,30.18,ENE,63,2.0,4.0,49,0.00,,CLR,0.00,VWS V14.01,2013-06-20 23:27:00,
2013-06-20 19:32:00,75.7,56.3,30.18,ENE,67,0.0,0.0,51,0.00,,CLR,0.00,VWS V14.01,2013-06-20 23:32:00,
2013-06-20 19:37:00,75.7,55.8,30.18,ENE,77,0.0,3.0,50,0.00,,CLR,0.00,VWS V14.01,2013-06-20 23:37:00,
2013-06-20 19:42:00,75.6,55.7,30.18,ENE,73,0.0,3.0,50,0.00,,CLR,0.00,VWS V14.01,2013-06-20 23:42:00,
2013-06-20 19:47:00,75.5,55.0,30.18,ENE,70,1.0,5.0,49,0.00,,CLR,0.00,VWS V14.01,2013-06-20 23:47:00,
2013-06-20 19:52:00,75.2,55.8,30.18,ENE,70,0.0,5.0,51,0.00,,CLR,0.00,VWS V14.01,2013-06-20 23:52:00,
2013-06-20 19:57:00,75.1,55.8,30.18,ENE,70,1.0,5.0,51,0.00,,CLR,0.00,VWS V14.01,2013-06-20 23:57:00,
2013-06-20 20:02:00,74.8,55.5,30.18,ENE,70,1.0,1.0,51,0.00,,CLR,0.00,VWS V14.01,2013-06-21 00:02:00,
2013-06-20 20:07:00,74.6,55.8,30.18,ENE,70,2.0,3.0,52,0.00,,CLR,0.00,VWS V14.01,2013-06-21 00:07:00,
2013-06-20 20:12:00,74.3,55.6,30.18,ENE,70,0.0,3.0,52,0.00,,CLR,0.00,VWS V14.01,2013-06-21 00:12:00,
2013-06-20 20:17:00,74.0,55.3,30.18,ENE,70,0.0,3.0,52,0.00,,CLR,0.00,VWS V14.01,2013-06-21 00:17:00,
2013-06-20 20:22:00,73.8,55.6,30.18,ENE,70,0.0,3.0,53,0.00,,CLR,0.00,VWS V14.01,2013-06-21 00:22:00,
2013-06-20 20:27:00,73.5,55.9,30.17,ENE,70,2.0,3.0,54,0.00,,CLR,0.00,VWS V14.01,2013-06-21 00:27:00,
2013-06-20 20:32:00,73.1,56.0,30.17,ENE,71,1.0,2.0,55,0.00,,CLR,0.00,VWS V14.01,2013-06-21 00:32:00,
2013-06-20 20:37:00,72.8,55.7,30.17,ENE,71,0.0,2.0,55,0.00,,CLR,0.00,VWS V14.01,2013-06-21 00:37:00,
2013-06-20 20:42:00,72.5,55.9,30.17,ENE,71,1.0,2.0,56,0.00,,CLR,0.00,VWS V14.01,2013-06-21 00:42:00,
2013-06-20 20:47:00,72.0,56.0,30.17,ENE,71,1.0,2.0,57,0.00,,CLR,0.00,VWS V14.01,2013-06-21 00:47:00,
2013-06-20 20:52:00,71.6,56.1,30.17,ENE,71,0.0,3.0,58,0.00,,CLR,0.00,VWS V14.01,2013-06-21 00:52:00,
2013-06-20 20:57:00,71.3,55.3,30.17,ENE,71,0.0,3.0,57,0.00,,CLR,0.00,VWS V14.01,2013-06-21 00:57:00,
2013-06-20 21:02:00,71.1,55.6,30.17,ENE,71,0.0,1.0,58,0.00,,CLR,0.00,VWS V14.01,2013-06-21 01:02:00,
2013-06-20 21:07:00,70.9,55.9,30.17,ENE,71,0.0,1.0,59,0.00,,CLR,0.00,VWS V14.01,2013-06-21 01:07:00,
2013-06-20 21:13:00,70.4,55.9,30.18,ENE,71,1.0,1.0,60,0.00,,CLR,0.00,VWS V14.01,2013-06-21 01:13:00,
2013-06-20 21:18:00,69.9,56.3,30.18,ENE,71,0.0,1.0,62,0.00,,CLR,0.00,VWS V14.01,2013-06-21 01:18:00,
2013-06-20 21:23:00,69.5,56.8,30.17,ENE,71,0.0,1.0,64,0.00,,CLR,0.00,VWS V14.01,2013-06-21 01:23:00,
2013-06-20 21:28:00,68.7,56.5,30.18,ENE,71,0.0,1.0,65,0.00,,CLR,0.00,VWS V14.01,2013-06-21 01:28:00,
2013-06-20 21:33:00,68.2,56.4,30.18,ENE,71,0.0,0.0,66,0.00,,CLR,0.00,VWS V14.01,2013-06-21 01:33:00,
2013-06-20 21:38:00,67.6,56.7,30.18,ENE,71,0.0,0.0,68,0.00,,CLR,0.00,VWS V14.01,2013-06-21 01:38:00,
2013-06-20 21:43:00,67.2,56.7,30.18,ENE,71,0.0,0.0,69,0.00,,CLR,0.00,VWS V14.01,2013-06-21 01:43:00,
2013-06-20 21:48:00,66.6,55.7,30.18,ENE,71,0.0,1.0,68,0.00,,CLR,0.00,VWS V14.01,2013-06-21 01:48:00,
2013-06-20 21:53:00,66.5,56.0,30.18,ENE,71,0.0,1.0,69,0.00,,CLR,0.00,VWS V14.01,2013-06-21 01:53:00,
2013-06-20 21:58:00,66.4,55.9,30.18,ENE,71,0.0,2.0,69,0.00,,CLR,0.00,VWS V14.01,2013-06-21 01:58:00,
2013-06-20 22:03:00,66.2,55.7,30.18,ENE,71,0.0,1.0,69,0.00,,CLR,0.00,VWS V14.01,2013-06-21 02:03:00,
2013-06-20 22:08:00,66.0,56.0,30.18,ENE,71,0.0,1.0,70,0.00,,CLR,0.00,VWS V14.01,2013-06-21 02:08:00,
2013-06-20 22:13:00,65.8,56.2,30.18,ENE,71,0.0,1.0,71,0.00,,CLR,0.00,VWS V14.01,2013-06-21 02:13:00,
2013-06-20 22:18:00,65.5,55.9,30.19,ENE,71,0.0,1.0,71,0.00,,CLR,0.00,VWS V14.01,2013-06-21 02:18:00,
2013-06-20 22:24:00,65.1,55.9,30.19,ENE,71,0.0,1.0,72,0.00,,CLR,0.00,VWS V14.01,2013-06-21 02:24:00,
2013-06-20 22:29:00,64.9,55.7,30.19,ENE,71,0.0,1.0,72,0.00,,CLR,0.00,VWS V14.01,2013-06-21 02:29:00,
2013-06-20 22:34:00,64.9,55.7,30.19,ENE,71,0.0,2.0,72,0.00,,CLR,0.00,VWS V14.01,2013-06-21 02:34:00,
2013-06-20 22:39:00,65.0,55.8,30.19,ENE,71,0.0,2.0,72,0.00,,CLR,0.00,VWS V14.01,2013-06-21 02:39:00,
2013-06-20 22:44:00,65.0,55.4,30.19,ENE,71,0.0,2.0,71,0.00,,CLR,0.00,VWS V14.01,2013-06-21 02:44:00,
2013-06-20 22:49:00,65.0,55.4,30.19,ENE,71,0.0,2.0,71,0.00,,CLR,0.00,VWS V14.01,2013-06-21 02:49:00,
2013-06-20 22:54:00,65.0,55.8,30.20,ENE,71,0.0,2.0,72,0.00,,CLR,0.00,VWS V14.01,2013-06-21 02:54:00,
2013-06-20 22:59:00,64.7,55.5,30.20,ENE,71,0.0,2.0,72,0.00,,CLR,0.00,VWS V14.01,2013-06-21 02:59:00,
2013-06-20 23:04:00,64.5,55.3,30.20,ENE,71,0.0,1.0,72,0.00,,CLR,0.00,VWS V14.01,2013-06-21 03:04:00,
2013-06-20 23:09:00,64.3,55.5,30.20,ENE,71,0.0,1.0,73,0.00,,CLR,0.00,VWS V14.01,2013-06-21 03:09:00,
2013-06-20 23:14:00,64.1,55.7,30.20,ENE,71,0.0,1.0,74,0.00,,CLR,0.00,VWS V14.01,2013-06-21 03:14:00,
2013-06-20 23:19:00,63.9,55.1,30.20,ENE,71,0.0,1.0,73,0.00,,CLR,0.00,VWS V14.01,2013-06-21 03:19:00,
2013-06-20 23:24:00,63.6,56.3,30.20,ENE,71,0.0,1.0,77,0.00,,CLR,0.00,VWS V14.01,2013-06-21 03:24:00,
2013-06-20 23:29:00,63.3,55.2,30.20,ENE,71,0.0,1.0,75,0.00,,CLR,0.00,VWS V14.01,2013-06-21 03:29:00,
2013-06-20 23:34:00,63.1,55.1,30.20,ENE,71,0.0,0.0,75,0.00,,CLR,0.00,VWS V14.01,2013-06-21 03:34:00,
2013-06-20 23:39:00,62.9,55.2,30.20,ENE,71,0.0,0.0,76,0.00,,CLR,0.00,VWS V14.01,2013-06-21 03:39:00,
2013-06-20 23:44:00,62.7,56.1,30.21,ENE,71,0.0,0.0,79,0.00,,CLR,0.00,VWS V14.01,2013-06-21 03:44:00,
2013-06-20 23:50:00,62.4,54.8,30.21,ENE,71,0.0,0.0,76,0.00,,CLR,0.00,VWS V14.01,2013-06-21 03:50:00,
2013-06-20 23:55:00,62.5,54.5,30.21,ENE,71,0.0,0.0,75,0.00,,CLR,0.00,VWS V14.01,2013-06-21 03:55:00,